User: anonymous   Login
Location: Unspecified
(0.0000°N, 0.0000°E)
Time: 19:55:26
(UTC+00:00)
Language:

AIST 2 - Orbit

View from above orbital plane
View from above orbital plane
View from above satellite
View from above satellite

Ground track
Ground track

The orbit data is extracted from the following two-line orbital elements,

1 39133U 13015D   23274.33369976  .00007619  00000-0  47866-3 0  9990
2 39133  64.8733 212.9727 0021973 228.8161 131.1067 15.09720289574099
Epoch (UTC): 01 October 2023 08:00:31
Eccentricity: 0.0021973
inclination: 64.8733°
perigee height: 522 km
apogee height: 552 km
right ascension of ascending node: 212.9727°
argument of perigee: 228.8161°
revolutions per day: 15.09720289
mean anomaly at epoch: 131.1067°
orbit number at epoch: 57409

The dashed part of the orbit path shows where the satellite is in the earth's shadow,  

DLR